Flag for U.S.A. Weather past 2 weeks in Amarillo, Texas, U.S.A.

Now
38 °F

Clear.


Feels Like: 30 °F
Forecast: 22 / 40 °F
Wind: 14 mph from South

Location: Amarillo International Airport

Current Time: Dec 26, 2014 at 2:44:21 AM

Latest Report: Dec 26, 2014 at 1:53 AM


Visibility: 10 mi

Pressure: 29.67 "Hg

Humidity: 58%

Dew point: 24 °F

Location of AmarilloLocation

Historic Weather in Amarillo — Graph

°F

Amarillo temperature yesterday

Maximum temperature yesterday: 58 °F (at 12:53 PM)
Minimum temperature yesterday: 38 °F (at 12:53 AM)
Average temperature yesterday: 45 °F

Past Weeks' High & Low Weather Summary

 TemperatureHumidityPressure
High69 °F (Dec 13, 2:53 PM)100% (Dec 11, 12:53 AM)30.38 "Hg (Dec 11, 12:53 AM)
Low21 °F (Dec 24, 7:53 AM)15% (Dec 25, 12:53 PM)29.49 "Hg (Dec 14, 1:53 PM)
Average42 °F70%29.96 "Hg
* Reported Dec 11 12:53 AM — Dec 26 12:53 AM, Amarillo, Weather by CustomWeather, © 2014

Note: Actual official high and low records may vary slightly from our data, if they occured in-between our weather recording intervals... More about our weather records

Advertising

Amarillo weather history for previous 24 hours

 ConditionsComfort  
Time TempWeatherWind HumidityBarometerVisibility
12:53 AM
Dec 26
40 °FClear.15 mph53%29.66 "Hg10 mi
11:53 PM
Dec 25
39 °FClear.15 mph55%29.67 "Hg10 mi
10:53 PM42 °FClear.15 mph49%29.66 "Hg10 mi
9:53 PM41 °FClear.14 mph45%29.67 "Hg10 mi
8:53 PM43 °FClear.13 mph42%29.67 "Hg10 mi
7:53 PM44 °FClear.12 mph38%29.68 "Hg10 mi
6:53 PM43 °FClear.12 mph38%29.67 "Hg10 mi
5:53 PM48 °FClear.14 mph32%29.65 "Hg10 mi
4:53 PM50 °FSunny.13 mph27%29.63 "Hg10 mi
3:53 PM50 °FSunny.16 mph26%29.62 "Hg10 mi
2:53 PM51 °FPartly sunny.18 mph25%29.62 "Hg10 mi
1:53 PM53 °FSunny.21 mph22%29.60 "Hg10 mi
12:53 PM58 °FSunny.22 mph15%29.59 "Hg10 mi
11:53 AM54 °FSunny.25 mph18%29.63 "Hg10 mi
10:53 AM54 °FSunny.20 mph19%29.64 "Hg10 mi
9:53 AM46 °FSunny.23 mph26%29.63 "Hg10 mi
8:53 AM42 °FSunny.20 mph32%29.64 "Hg10 mi
7:53 AM38 °FSunny.17 mph37%29.65 "Hg10 mi
6:53 AM42 °FClear.18 mph30%29.62 "Hg10 mi
5:53 AM41 °FClear.20 mph33%29.61 "Hg10 mi
4:53 AM40 °FClear.18 mph36%29.60 "Hg10 mi
3:53 AM40 °FClear.18 mph36%29.61 "Hg10 mi
2:53 AM39 °FClear.22 mph41%29.63 "Hg10 mi
Weather by CustomWeather, © 2014

See weather overviewHow to use our weather pages